Regional Weather Roundup
Issued by NWS Little Rock, AR

Home | Current Version | Previous Version | Text Only | Print | Product List | Glossary On
Versions: 1 2 3 4 5 6 7 8 9 10 11 12 13 14 15 16 17 18 19 20 21 22 23 24 25 26 27 28 29 30 31 32 33 34 35 36 37 38 39 40 41 42 43 44 45 46 47 48 49 50
000
ASUS44 KLZK 271605
RWRLZK

WEATHER ROUNDUP FOR ARKANSAS
NATIONAL WEATHER SERVICE LITTLE ROCK AR
1000 AM CST THU NOV 27 2014

NOTE: "FAIR" INDICATES FEW OR NO CLOUDS BELOW 12,000 FEET WITH NO
SIGNIFICANT WEATHER AND/OR OBSTRUCTIONS TO VISIBILITY.

ARZ001-003-010-029-271700-
NORTHWEST ARKANSAS

CITY           SKY/WX    TMP DP  RH WIND       PRES   REMARKS
FAYETTEVILLE   CLOUDY    29  24  82 CALM      30.55R
FORT SMITH     SUNNY     38  24  57 VRB3      30.58R
HARRISON       MOSUNNY   33  25  72 VRB3      30.51R
BENTONVILLE    CLOUDY    30  23  74 CALM      30.55R
ROGERS         CLOUDY    32  25  75 CALM      30.54R
SILOAM SPGS    CLOUDY    28  19  69 CALM      30.56R
HIGHFILL       CLOUDY    30  25  81 CALM      30.54R
SPRINGDALE     CLOUDY    28  23  80 NE7       30.56R WCI  21
$$

ARZ004-005-016-271700-
NORTH CENTRAL ARKANSAS

CITY           SKY/WX    TMP DP  RH WIND       PRES   REMARKS
BATESVILLE     SUNNY     39  25  56 NW8       30.53R
FLIPPIN        SUNNY     37  23  56 W8        30.53R
MTN HOME       MOSUNNY   36  25  64 VRB5      30.51R
$$

ARZ040-041-271700-
WEST CENTRAL ARKANSAS

CITY           SKY/WX    TMP DP  RH WIND       PRES   REMARKS
MENA           SUNNY     41  28  60 CALM      30.54R
MOUNT IDA      SUNNY     40  25  55 NW7       30.52R
$$

ARZ009-017-025-026-028-271700-
NORTHEAST ARKANSAS

CITY           SKY/WX    TMP DP  RH WIND       PRES   REMARKS
CORNING          N/A     39  28  65 N14       30.53R
JONESBORO      MOSUNNY   40  30  67 N9        30.51R
NEWPORT        SUNNY     42  28  58 N15       30.53R
WALNUT RIDGE   PTSUNNY   41  27  56 NW15      30.51R
BLYTHEVILLE    PTSUNNY   50  31  48 N16       30.50R
$$

ARZ022-023-033-042-044-271700-
CENTRAL ARKANSAS

CITY           SKY/WX    TMP DP  RH WIND       PRES   REMARKS
LITTLE ROCK    MOSUNNY   43  24  47 VRB5      30.57R
N LITTLE ROCK  MOSUNNY   39  28  63 N6        30.57R
JACKSONVILLE   MOSUNNY   41  26  54 NE5       30.55R
SEARCY         MOSUNNY   41  28  60 N8        30.56R
HOT SPRINGS    MOSUNNY   41  27  57 NW5       30.56R
RUSSELLVILLE   SUNNY     39  26  59 VRB6      30.56R
CLINTON        FAIR      41  27  56 W8        30.55R
$$

ARZ036-271700-
EAST ARKANSAS

CITY           SKY/WX    TMP DP  RH WIND       PRES   REMARKS
WEST MEMPHIS   PTSUNNY   42  31  64 N13G21    30.49R
$$

ARZ050-053-066-070-073-271700-
SOUTHWEST ARKANSAS

CITY           SKY/WX    TMP DP  RH WIND       PRES   REMARKS
ARKADELPHIA    FAIR      43  29  58 NE6       30.59R
CAMDEN         SUNNY     45  27  49 MISG      30.58R
TEXARKANA      SUNNY     44  27  51 N8        30.56R
EL DORADO      SUNNY     44  29  55 N8        30.56R
DE QUEEN       SUNNY     43  27  53 NW5       30.56R
$$

ARZ056-057-069-271700-
SOUTHEAST ARKANSAS

CITY           SKY/WX    TMP DP  RH WIND       PRES   REMARKS
PINE BLUFF     LGT RAIN  41  27  57 N9G18     30.57R
STUTTGART      CLOUDY    39  27  60 NW9       30.56R
MONTICELLO     PTSUNNY   41  27  57 VRB5      30.55R

$$





USA.gov is the U.S. government's official web portal to all federal, state and local government web resources and services.